Temp
17 17 17 17 17 17 17 17 17 16 16 16 16 16 16 16 16 16 16 16 15 15 15 15 15 15 14 14 14 14 13 13 13 13 13 13 13 13 13 13 13 13 12 12 12 12 13 12 12 12 12 12 12 12 13 12 13 13 13 13 13 13 13 12 10 9 10 10 10 10 10 10 10 9 9 9 9 9 9 9 9 9 9 9 9
17 17 17 17 17 16 16 16 16 16 16 16 16 16 16 16 16 16 16 15 15 15 15 15 15 14 14 14 14 13 13 13 13 13 13 13 13 13 12 12 13 12 12 12 12 12 12 12 12 12 12 12 12 12 12 12 12 12 12 12 12 12 12 12 10 9 9 9 9 9 9 9 9 9 9 9 9 9 9 9 9 9 9 9 9
17 17 17 17 17 16 16 16 16 16 16 16 15 15 15 15 16 16 15 15 15 15 15 15 15 14 14 14 13 13 13 13 13 12 13 13 13 12 12 12 12 12 12 12 12 12 12 12 12 12 12 12 12 12 12 12 11 11 11 12 12 11 12 12 11 10 9 9 9 9 9 9 9 9 9 9 9 9 9 9 9 9 9 9 9
17 17 17 17 16 16 16 16 16 16 16 15 15 15 15 15 15 15 15 14 14 14 15 15 14 14 13 13 13 13 13 13 12 12 12 12 12 12 12 12 12 12 12 12 12 12 12 12 12 12 12 12 11 11 11 11 11 11 11 11 11 11 11 11 11 10 10 9 9 9 9 9 9 9 9 9 9 9 9 9 9 9 9 9 9
17 17 17 16 16 16 16 16 16 16 15 15 15 15 15 15 15 15 14 14 14 14 14 14 14 14 13 13 13 13 12 12 12 12 12 12 12 12 12 12 12 12 12 12 12 12 12 12 12 12 12 11 11 11 11 11 11 11 11 11 11 11 11 11 11 10 10 9 9 9 9 9 9 9 9 9 9 9 9 9 9 9 9 9 9
17 17 17 16 16 16 16 16 16 16 15 15 15 15 15 15 15 14 14 14 14 14 14 14 14 13 13 13 13 13 12 12 12 12 12 12 12 12 12 12 12 12 12 12 12 12 12 12 12 12 12 12 11 11 11 11 11 11 11 11 10 10 10 10 10 10 10 9 9 9 9 9 9 9 9 9 8 8 8 9 9 9 9 9 9
17 17 17 16 16 16 16 16 16 15 15 15 15 15 15 15 15 14 13 14 14 14 14 14 13 13 13 13 13 12 12 12 12 12 12 12 12 12 12 12 11 11 11 11 11 11 12 12 12 11 12 12 11 11 11 11 11 11 11 11 10 10 10 10 10 10 10 9 9 9 9 9 9 9 9 9 9 8 8 8 8 9 9 9 9
17 17 17 16 16 16 16 16 16 15 15 15 15 14 14 15 15 14 13 14 14 14 14 14 13 13 13 13 13 12 12 12 12 12 12 11 11 12 11 11 11 11 11 11 11 11 11 11 11 11 11 12 12 11 11 11 11 11 10 10 10 10 10 10 9 10 10 9 9 9 9 9 9 9 9 9 8 8 8 8 8 8 8 9 9
17 17 16 16 16 16 16 15 15 15 15 14 14 14 14 14 14 13 13 14 14 14 14 14 13 13 13 13 12 12 12 12 12 12 12 11 11 11 11 11 11 11 11 11 11 11 11 11 11 11 11 11 11 11 11 11 11 11 11 10 11 11 10 10 10 10 9 9 9 9 9 9 9 9 9 8 8 8 8 8 8 8 8 9 9
17 17 16 16 16 16 15 15 15 15 14 14 14 14 14 14 14 13 13 13 14 14 14 13 13 13 13 12 12 12 12 12 12 12 12 12 11 11 11 11 11 11 11 11 11 11 11 11 11 11 11 11 11 11 11 11 11 11 11 11 11 11 10 10 10 10 10 9 9 9 9 9 9 8 8 8 8 8 8 8 8 8 8 8 9
17 16 16 16 16 16 15 15 14 14 14 14 14 14 14 14 14 13 13 13 13 14 14 13 13 13 13 12 12 12 12 12 12 12 12 12 11 11 11 11 11 11 11 11 10 10 10 10 10 10 10 10 10 10 11 11 11 11 11 11 11 11 10 10 10 10 10 9 9 9 9 9 9 8 8 8 8 8 9 8 8 8 8 7 7
17 16 16 16 15 15 15 15 14 14 14 14 14 13 14 14 13 13 12 13 13 13 13 13 13 13 12 12 12 12 12 12 12 12 11 11 11 11 11 11 11 11 11 11 10 10 10 10 10 10 10 10 10 10 10 10 10 10 10 10 10 10 10 10 10 10 10 9 9 9 9 9 9 9 8 8 9 9 9 9 8 8 8 7 7
16 16 16 16 15 15 15 15 14 14 14 14 13 13 13 13 13 12 12 13 13 13 13 13 13 13 12 12 12 12 12 12 12 12 11 11 11 11 11 11 11 11 10 10 10 10 10 10 10 10 10 9 10 10 10 10 10 10 10 10 10 10 10 10 10 10 10 10 10 9 9 9 9 9 8 8 9 9 9 9 9 8 8 8 8
16 16 16 15 15 15 14 14 14 14 14 14 13 13 13 13 13 12 12 13 13 13 13 13 13 13 12 12 12 12 12 12 12 12 11 11 11 11 11 11 11 11 10 10 10 10 10 10 10 10 10 9 9 10 10 10 10 9 9 9 9 9 9 9 9 9 10 10 10 10 9 9 9 9 9 9 9 9 9 9 9 9 8 8 8
16 16 15 15 15 15 14 14 14 13 13 14 13 13 13 13 13 12 12 13 13 13 13 13 13 13 13 13 12 12 12 12 12 12 11 11 11 11 11 11 11 11 10 10 10 10 10 10 10 10 10 9 9 10 9 9 9 9 9 9 9 9 10 10 10 10 10 10 10 10 9 9 9 9 9 9 9 9 9 9 9 9 9 9 9
16 15 15 15 14 14 14 14 13 13 13 13 13 13 13 13 12 12 12 13 13 13 13 13 13 13 13 13 12 12 12 12 12 12 12 11 11 11 11 11 11 10 10 10 10 10 10 9 9 10 10 9 9 9 9 9 9 9 9 9 9 10 10 10 10 10 10 10 10 10 10 9 10 10 10 10 10 9 9 9 9 9 9 9 9
15 15 15 14 14 14 14 13 13 13 13 13 13 13 13 13 12 12 12 13 12 12 13 13 13 13 13 13 13 13 12 12 12 12 12 11 11 11 11 11 10 10 10 10 10 9 9 9 9 9 10 10 10 9 9 9 9 9 9 9 9 10 10 10 10 10 10 10 10 10 10 10 10 10 10 10 10 9 9 9 9 9 9 8 8
15 15 14 14 14 14 14 14 13 13 13 13 13 13 13 13 13 12 13 13 12 12 13 13 13 13 13 13 13 13 13 12 12 12 12 11 11 11 11 11 10 10 10 10 9 9 9 9 9 9 10 10 10 9 9 9 10 10 10 9 9 10 10 10 10 10 10 10 10 10 10 10 10 10 10 10 10 10 9 9 9 9 9 8 8
15 15 14 14 14 14 14 14 14 13 13 13 14 13 13 13 13 13 12 13 12 12 13 13 13 13 13 13 13 13 13 13 12 12 12 11 11 11 11 10 10 10 9 9 9 9 9 9 9 10 10 10 10 10 10 9 10 10 10 9 9 9 10 10 10 9 10 10 10 10 10 10 10 10 10 10 10 10 10 9 9 9 9 9 8
15 15 14 14 14 14 14 14 13 13 13 14 14 13 13 13 13 12 12 12 12 12 13 14 14 13 13 13 13 13 13 13 12 12 12 11 11 11 11 10 10 9 9 9 9 9 9 9 9 10 10 10 10 10 9 9 9 10 10 10 10 10 10 10 10 9 10 10 10 10 10 10 10 10 10 10 10 10 10 9 9 9 9 9 9
15 15 15 14 14 14 14 13 13 13 14 15 14 13 13 13 13 13 12 12 12 12 12 13 13 13 13 13 13 13 13 13 13 12 12 11 11 11 11 10 10 10 9 9 9 9 9 9 9 10 10 10 10 10 9 9 9 10 10 10 10 10 10 10 10 10 10 10 10 10 10 10 10 10 10 10 10 10 10 10 10 10 10 9 9
15 15 14 14 14 14 13 13 14 14 14 15 14 13 13 13 13 13 13 12 12 12 12 12 12 12 13 13 13 12 12 12 12 12 12 11 11 11 11 11 10 10 10 9 9 9 9 9 10 10 10 10 10 10 9 9 9 9 10 10 10 10 10 10 10 10 10 10 10 10 10 10 10 10 10 10 10 10 10 10 10 10 10 10 10
14 14 14 13 13 13 13 13 14 14 14 14 14 13 13 13 13 12 12 12 12 12 11 12 12 12 12 12 12 12 12 12 12 12 12 11 11 11 11 11 10 10 10 10 10 10 10 10 10 10 10 10 10 10 10 9 9 9 10 10 10 9 9 9 9 9 10 10 10 10 10 10 10 10 10 10 10 10 10 10 10 10 10 10 10
14 14 13 13 13 13 13 14 14 14 14 14 13 13 13 13 12 12 12 12 12 12 11 12 11 11 10 10 11 11 12 12 12 12 12 11 11 11 11 10 10 10 10 10 10 10 10 10 10 10 10 10 10 10 10 9 9 9 9 9 9 9 9 9 9 9 9 10 10 10 10 10 10 10 10 10 10 10 10 10 10 10 10 10 10
14 13 13 13 13 13 14 14 13 13 13 13 13 12 12 12 12 12 12 12 12 11 11 11 11 10 10 10 10 11 11 11 11 11 11 11 11 11 10 10 10 10 10 10 10 10 10 10 10 10 10 10 10 10 9 9 9 9 9 9 9 9 9 9 9 9 9 9 10 10 10 10 10 10 10 10 10 10 10 10 10 10 10 10 10
14 13 13 13 13 13 13 13 12 13 13 13 13 13 12 12 12 12 12 12 12 11 11 10 10 10 10 10 10 11 11 11 11 11 11 11 11 10 10 10 10 9 9 10 10 10 10 10 10 10 10 10 10 10 10 9 9 9 9 9 9 9 9 9 9 9 9 9 10 10 10 10 10 10 10 10 10 10 10 10 10 10 10 10 10
13 13 13 13 12 12 12 12 12 12 12 12 12 12 12 12 12 12 12 11 11 11 11 10 10 10 10 9 10 10 10 10 10 11 11 10 10 10 10 9 9 9 9 9 10 9 9 9 9 10 10 10 9 10 9 9 9 9 9 8 8 9 9 9 9 9 9 9 9 10 10 10 10 10 10 10 10 10 10 10 10 10 10 10 10
13 13 12 12 12 12 12 12 12 12 12 12 12 12 12 12 12 12 12 12 11 11 11 10 10 11 10 10 9 9 10 10 11 11 11 10 10 10 9 9 8 8 9 9 9 9 8 9 9 9 9 9 9 9 9 9 9 9 9 8 8 8 9 9 8 8 8 9 9 10 10 10 10 10 10 10 10 10 10 10 10 10 10 10 10
13 13 12 12 12 12 12 12 12 12 12 12 12 12 12 12 12 12 12 12 13 13 12 12 12 12 11 11 11 10 9 10 12 11 11 11 10 10 10 9 9 8 8 9 9 8 8 8 8 9 9 9 9 9 9 9 9 9 9 9 8 8 8 8 8 8 9 9 9 10 10 10 10 10 10 10 10 10 10 10 10 10 10 10 10
12 12 12 12 12 12 12 12 12 12 12 12 12 12 12 12 12 12 12 13 13 13 13 13 13 13 12 12 12 12 11 12 13 12 11 11 10 10 10 10 10 9 8 8 8 8 8 8 8 8 9 9 9 9 9 9 9 9 9 9 9 8 8 9 9 9 9 9 9 10 10 10 10 10 10 10 10 11 10 10 10 10 10 10 10
12 12 12 12 12 12 12 12 12 12 12 11 11 11 11 11 11 12 12 13 13 13 13 13 13 14 13 13 13 12 12 12 12 12 11 11 10 10 10 10 9 9 8 8 8 7 7 7 8 8 8 9 9 9 9 9 9 9 9 9 9 9 9 9 9 9 10 10 10 10 10 10 10 10 11 11 11 10 10 10 10 10 10 10 9
12 12 12 12 12 12 12 12 12 11 11 11 11 11 11 10 10 11 11 12 12 12 12 12 13 13 13 13 13 12 12 12 11 11 11 11 10 10 10 10 10 9 8 7 7 7 7 7 7 8 8 8 9 9 9 9 9 9 9 9 9 9 9 10 10 9 9 10 10 10 10 10 10 11 11 11 11 10 10 10 10 10 10 10 9
12 12 12 12 12 12 12 11 11 11 11 11 11 11 10 10 10 10 10 11 11 11 12 12 11 11 11 12 12 12 12 12 11 11 11 10 10 10 10 10 10 9 8 7 6 6 6 6 7 7 8 8 9 9 9 8 8 8 8 9 9 9 10 10 9 9 9 9 10 10 10 10 11 11 11 11 11 11 10 10 10 10 10 10 10
13 13 13 12 12 12 11 11 11 11 11 11 10 11 11 11 10 10 9 10 10 10 10 10 10 10 11 11 11 11 11 11 11 11 11 11 11 10 10 9 8 8 7 6 6 6 6 6 6 7 7 8 8 8 8 8 8 8 8 8 9 9 9 9 9 9 9 9 10 10 10 11 11 11 11 11 11 10 10 10 10 10 10 10 10
13 13 13 13 12 12 12 11 11 11 11 11 11 11 11 10 10 10 10 10 10 10 9 9 10 10 10 10 10 10 10 10 11 11 11 11 10 10 9 8 7 6 6 6 6 6 6 6 7 7 7 7 8 8 8 8 8 8 8 9 9 9 9 9 9 9 9 10 10 10 11 11 11 11 11 11 10 10 10 10 10 10 10 10 10
12 12 12 12 12 12 12 11 11 11 11 11 11 10 10 10 10 10 10 10 10 9 9 9 9 9 10 10 10 10 10 10 10 10 10 10 10 10 9 7 7 7 6 6 6 6 6 6 7 7 7 7 7 7 7 7 8 8 8 9 9 9 9 9 9 9 9 10 10 10 11 11 11 11 11 11 10 10 10 10 10 10 10 10 10
12 12 12 12 12 12 11 11 11 11 11 11 10 10 10 10 10 10 10 9 9 9 9 9 9 9 9 9 9 10 10 10 10 10 10 10 9 9 9 8 8 7 7 7 7 7 7 7 7 7 7 7 6 6 6 7 7 7 7 8 8 8 9 9 9 9 9 10 10 10 11 11 11 11 10 10 11 10 10 10 10 10 10 10 9
13 13 13 12 12 11 11 11 11 11 11 10 10 10 10 10 10 9 9 9 9 9 9 9 9 9 9 9 9 9 10 10 10 10 10 10 9 9 8 8 7 7 7 8 8 7 7 8 8 7 7 6 6 6 6 6 6 6 7 7 7 8 8 8 8 9 9 10 9 10 10 10 10 10 10 10 10 10 10 10 10 10 10 9 9
12 12 12 12 11 11 11 11 11 11 10 10 10 10 10 9 9 9 9 8 8 9 9 9 9 9 9 9 9 9 9 9 9 10 10 10 10 10 9 8 7 7 7 8 8 7 7 8 8 8 7 7 6 6 6 6 6 6 6 7 7 7 8 8 8 8 9 9 9 9 9 10 10 10 10 10 10 10 10 10 10 9 9 9 9
12 11 11 12 12 11 11 11 11 10 10 10 10 9 9 9 9 9 9 8 8 8 8 8 9 9 9 9 9 9 9 9 9 10 10 10 10 10 9 9 8 7 7 8 8 8 7 8 8 8 8 8 7 7 6 6 6 6 6 6 7 7 7 7 8 8 8 9 9 9 9 10 10 10 10 10 10 10 9 9 9 9 9 9 9
12 12 12 12 12 11 11 11 11 10 10 10 10 10 9 9 9 9 9 8 8 8 8 8 9 9 9 9 10 10 10 9 10 10 10 10 10 10 10 9 9 8 8 8 8 8 8 8 8 8 8 8 8 7 7 7 6 6 6 6 7 7 7 7 7 8 8 8 9 9 9 10 9 9 10 10 9 9 9 9 9 9 9 9 9
13 13 12 11 11 11 11 11 10 10 10 10 10 10 10 9 9 9 8 8 8 8 8 9 9 9 9 9 9 9 9 9 9 10 10 10 10 10 10 10 9 9 9 9 9 8 8 8 8 8 8 8 8 7 7 7 6 6 6 6 7 7 7 7 7 8 8 8 9 9 9 9 9 9 9 9 9 9 9 9 9 9 9 9 8
13 13 12 11 11 11 11 11 10 10 10 10 10 10 9 9 9 9 8 8 8 8 9 9 9 9 8 9 9 8 8 8 9 9 9 9 9 9 9 9 9 9 9 9 9 8 8 8 8 8 8 8 8 7 7 7 7 6 6 6 7 7 7 7 7 8 8 8 9 9 10 9 9 9 9 9 9 9 9 9 9 9 9 9 8
13 13 12 12 11 11 11 10 10 10 9 9 9 9 9 9 9 9 8 8 9 9 9 9 9 9 8 8 8 8 8 8 8 9 9 9 9 9 9 9 9 9 8 8 8 8 8 8 8 8 8 7 7 7 7 7 7 6 6 6 6 7 7 7 8 8 8 8 9 9 10 10 9 9 9 9 9 9 9 9 9 9 9 8 8
13 13 13 12 11 11 10 10 10 10 9 9 9 9 9 9 9 9 9 9 9 9 9 9 9 9 8 8 8 8 8 9 9 9 9 9 9 9 9 9 9 9 8 8 8 8 8 8 7 7 7 7 7 7 7 7 6 6 6 6 6 6 7 7 8 8 8 9 9 9 9 9 9 9 9 9 9 9 9 9 9 9 9 8 8
14 13 13 12 11 10 10 10 10 9 9 9 9 9 9 9 9 9 9 9 9 9 9 9 9 8 8 8 8 9 9 9 9 9 9 9 9 9 9 9 9 9 8 8 8 8 7 7 7 7 6 6 6 6 6 6 6 6 6 6 7 7 7 7 8 8 8 9 9 9 9 9 9 9 9 9 9 9 9 9 9 9 8 8 8
13 13 12 12 12 11 10 10 10 10 10 9 9 9 9 9 9 9 9 9 9 9 8 8 8 8 8 8 8 9 9 9 9 9 9 9 9 9 9 9 9 9 9 8 8 8 7 7 7 6 6 6 6 6 6 7 7 7 7 7 7 7 7 7 7 8 8 8 9 9 9 9 9 9 9 9 9 9 8 8 8 8 8 7 7
13 12 12 12 12 12 11 11 11 11 10 10 9 9 9 9 9 9 9 9 9 9 9 8 8 8 8 8 8 9 9 9 9 9 9 9 9 9 9 9 9 9 9 9 8 8 8 7 7 7 6 6 6 7 7 7 7 7 7 7 7 7 7 7 7 7 8 8 8 8 9 9 9 9 9 9 8 8 8 8 8 7 7 6 6
13 13 13 13 12 12 12 12 11 11 11 10 10 9 9 9 9 9 9 9 9 9 9 9 9 9 8 8 8 8 8 8 9 9 9 9 9 9 9 9 9 9 9 9 8 8 8 8 7 7 7 7 7 7 7 7 7 7 7 7 7 7 7 7 7 7 7 8 8 8 8 8 8 8 8 8 8 7 7 7 7 6 6 6 5
13 13 13 13 12 12 12 11 11 10 10 10 9 9 9 9 8 8 8 8 8 8 8 8 8 8 8 8 8 8 8 8 9 9 9 9 9 9 9 9 9 9 9 9 8 8 8 8 8 8 8 7 7 7 7 7 7 7 7 7 7 7 7 7 7 7 7 7 7 7 7 8 8 8 7 7 7 7 7 6 6 6 5 5 4
13 13 13 12 12 11 11 11 10 10 10 9 9 9 9 9 9 8 8 8 8 8 8 8 8 8 8 8 8 8 9 9 9 9 9 9 9 9 9 9 9 9 9 8 8 8 8 8 8 8 8 8 8 7 7 7 7 7 7 7 7 7 7 7 7 7 7 7 7 7 7 7 7 7 7 7 7 7 6 6 5 5 4 4 3
Height
751 754 757 761 764 768 773 777 780 783 785 787 789 791 793 796 798 801 804 806 807 809 812 813 814 815 816 818 819 820 821 823 824 824 826 827 828 828 829 831 832 832 834 834 835 836 837 839 840 842 843 843 844 844 845 846 847 848 849 849 850 851 851 852 855 859 861 862 862 862 863 863 862 861 860 859 858 857 856 855 854 853 851 850 849
749 752 756 759 763 767 771 775 778 781 783 786 787 789 792 794 797 799 802 804 806 808 811 812 813 815 816 817 819 820 821 822 823 824 825 826 827 828 830 831 832 833 833 834 835 837 838 839 841 842 843 844 844 845 845 846 847 848 849 850 850 851 852 853 855 858 860 861 862 862 863 863 862 861 860 859 858 857 856 855 854 852 851 850 848
747 751 754 757 761 766 770 774 777 779 782 784 786 788 790 793 796 798 801 803 805 808 810 811 812 814 815 817 818 820 821 822 823 824 825 826 827 828 830 831 832 833 833 834 836 837 839 840 841 842 843 844 845 845 846 848 848 849 849 850 850 851 852 853 854 857 859 861 862 863 863 862 862 861 860 859 858 857 856 855 854 852 851 849 848
746 750 753 756 760 765 769 772 775 778 780 782 784 787 789 792 795 797 799 802 804 807 809 810 812 813 815 816 818 819 820 822 823 824 825 826 827 829 830 831 832 833 834 835 836 837 838 840 841 842 843 844 845 847 848 849 850 850 850 850 851 852 853 854 855 856 858 860 862 862 862 862 861 861 860 859 858 857 856 855 853 852 850 849 847
745 748 751 755 759 763 767 770 773 776 778 781 783 786 789 791 793 796 798 801 804 806 807 809 811 812 814 815 817 818 820 822 823 824 826 827 828 829 830 832 833 834 835 835 836 838 839 840 841 842 843 844 846 847 848 849 850 850 850 850 851 852 853 854 855 856 858 860 861 862 862 862 861 860 860 858 857 856 855 854 853 851 850 849 847
743 746 749 753 757 761 765 768 771 774 777 779 782 785 787 790 792 794 797 800 802 805 806 808 810 812 813 815 817 818 820 822 823 824 826 827 828 830 831 832 833 834 835 836 837 838 839 840 841 842 843 844 845 847 848 849 849 850 850 850 851 852 852 854 855 857 858 859 860 861 861 861 861 860 859 859 858 856 855 854 852 851 850 848 846
740 744 747 751 755 759 762 766 769 772 775 778 781 784 786 789 791 793 796 799 801 803 805 807 809 811 813 814 816 818 820 821 823 824 825 827 828 829 831 832 833 835 836 837 838 839 840 841 841 842 844 844 845 846 847 848 849 850 850 850 851 851 852 853 855 856 858 859 860 860 860 860 860 860 859 859 858 856 855 853 851 850 849 848 846
738 741 745 749 753 757 760 764 767 770 773 776 780 783 785 788 790 792 795 798 800 802 804 806 808 811 812 814 816 818 819 821 822 823 825 827 828 829 830 832 833 835 836 837 838 839 840 841 842 843 844 845 845 846 847 847 848 849 849 850 850 851 852 853 854 856 857 858 859 859 860 860 860 860 859 858 857 856 854 853 852 850 849 847 846
736 739 743 746 750 755 759 763 765 769 772 775 778 781 784 787 789 792 795 797 799 801 803 806 808 810 812 814 815 817 819 820 821 823 824 826 827 829 830 832 833 834 835 837 838 839 840 841 842 843 844 845 846 846 847 847 847 847 848 849 850 850 851 853 854 855 857 857 858 858 859 859 859 859 859 858 857 856 854 854 852 851 849 847 846
734 737 741 745 749 753 758 761 764 767 771 774 777 780 783 786 788 791 794 796 798 800 803 805 807 809 810 812 814 816 818 819 821 823 824 826 827 828 830 831 833 834 835 836 837 839 840 841 842 843 844 845 846 847 847 847 848 848 848 848 849 850 851 852 853 855 856 857 857 857 858 858 859 859 858 858 857 856 854 853 852 850 848 846 844
732 736 739 743 747 751 755 759 762 764 768 772 775 778 781 784 787 790 793 795 797 799 802 804 806 808 809 811 813 815 817 819 821 822 824 826 827 828 829 831 832 833 835 836 837 839 840 841 842 843 844 844 846 846 847 848 848 848 848 849 849 850 850 852 853 854 855 856 856 856 857 857 858 858 857 857 856 855 854 853 851 849 847 845 844
731 734 738 742 746 749 753 757 760 763 766 769 773 777 780 782 785 789 791 793 796 798 800 803 804 807 809 810 812 814 816 818 820 822 824 825 827 828 829 831 832 833 835 836 838 839 840 841 842 843 844 845 845 846 847 848 848 848 848 849 849 850 851 851 852 853 854 854 854 855 856 856 856 856 856 856 855 854 853 852 851 850 848 846 844
730 733 737 740 744 747 751 754 758 762 764 768 771 775 778 780 783 787 789 792 794 797 799 801 804 806 808 809 811 813 816 818 820 822 824 825 827 828 829 831 832 833 835 836 838 839 840 842 842 843 844 845 846 846 847 847 848 848 849 849 849 850 850 851 852 852 853 853 853 854 855 855 855 855 855 854 854 853 853 852 851 849 848 846 844
728 731 735 738 741 745 749 752 756 759 762 766 770 773 775 778 782 785 788 790 793 795 798 800 803 805 806 808 811 813 815 817 819 822 823 825 827 828 829 831 832 834 835 837 838 840 841 841 842 843 844 845 845 846 847 847 848 848 848 849 849 849 850 850 851 851 852 852 852 853 853 854 853 853 853 853 852 852 851 851 850 848 847 846 844
726 729 732 736 739 743 746 750 754 757 759 763 768 771 774 777 780 784 786 789 791 793 796 799 801 804 806 808 810 812 814 817 819 821 823 824 826 828 829 831 832 834 835 837 838 840 841 842 843 843 844 844 845 846 846 847 848 848 848 848 849 849 849 849 850 850 851 851 851 851 852 852 852 852 852 851 851 851 850 849 849 848 846 845 843
723 727 730 733 737 740 744 748 752 755 757 761 765 769 772 775 779 782 785 788 790 792 795 798 800 803 805 807 809 811 813 816 818 820 822 824 825 827 828 830 831 833 835 836 838 840 840 841 842 842 843 844 844 845 846 847 847 848 848 848 848 848 848 848 849 849 850 850 850 850 850 850 850 850 850 850 850 849 849 848 848 847 845 844 842
721 724 727 731 735 738 742 746 750 753 756 759 763 767 771 774 777 781 783 786 789 791 794 797 799 801 803 805 807 809 812 814 816 818 821 823 824 826 827 829 831 832 834 836 837 838 839 838 838 839 841 842 843 844 845 846 846 847 847 847 847 847 847 847 848 848 848 848 848 849 848 848 848 848 849 849 848 848 848 847 847 846 845 843 841
718 722 725 729 733 736 740 744 747 751 754 757 760 765 770 773 776 779 782 784 787 790 793 795 798 800 802 804 806 808 810 812 815 817 819 821 823 824 826 828 830 831 833 834 835 836 837 837 838 838 839 840 842 843 844 844 845 845 845 846 846 846 846 846 846 847 847 847 847 847 847 847 847 847 848 848 847 847 847 846 846 845 844 843 842
716 719 723 727 731 735 739 742 745 748 752 755 759 764 768 771 775 778 782 784 787 789 792 794 797 799 801 803 805 807 809 811 813 815 817 819 821 823 825 826 828 831 832 833 834 835 836 837 837 838 838 839 840 841 842 842 843 843 844 844 844 844 844 845 845 845 845 845 846 846 846 846 846 846 846 846 846 846 845 845 845 845 844 843 841
714 719 723 727 730 734 738 741 743 746 750 754 760 764 767 770 774 778 781 784 786 789 791 793 795 797 799 801 804 806 808 810 812 814 816 818 820 822 824 825 827 829 830 831 832 833 834 835 836 837 838 838 838 839 840 841 841 842 842 842 842 843 843 843 844 844 844 844 844 844 845 844 845 845 845 845 845 844 844 844 844 844 843 842 840
714 719 722 726 730 734 738 742 745 748 750 753 758 763 766 769 773 776 780 783 785 788 790 791 793 795 798 800 802 804 807 809 811 813 814 816 818 820 822 823 825 826 828 829 830 830 832 833 834 835 836 837 837 838 839 840 840 841 841 841 841 842 842 842 842 842 843 843 843 843 843 843 843 844 844 844 844 844 843 843 843 843 842 841 840
714 718 722 725 730 734 739 744 746 748 751 753 756 760 764 769 772 775 779 781 784 786 789 790 791 794 796 798 800 802 805 807 809 811 813 815 817 819 820 821 823 825 826 827 828 829 830 831 832 834 835 836 837 838 838 839 840 840 840 840 841 841 842 842 842 842 842 842 842 842 842 842 843 843 843 843 843 843 843 842 842 842 841 840 839
714 718 721 725 729 733 737 742 744 747 751 753 755 758 762 767 771 774 777 779 782 785 787 789 790 792 794 796 798 801 803 805 807 809 811 813 815 817 818 820 821 823 824 825 826 827 828 829 831 832 834 835 835 836 837 838 838 838 839 840 840 841 841 841 841 841 841 841 841 841 842 842 842 842 842 842 842 842 842 842 841 841 840 839 838
714 717 721 724 728 732 735 739 743 747 750 752 754 757 761 765 769 772 775 777 780 783 785 787 789 790 792 795 797 799 802 803 805 807 809 811 812 814 815 817 819 820 821 823 824 825 826 827 829 831 832 833 833 834 835 835 836 837 838 839 839 840 840 840 840 840 840 840 840 841 841 842 842 842 842 842 841 841 841 841 840 840 839 838 837
713 716 720 723 727 731 734 738 742 745 748 750 753 756 759 763 767 770 773 776 778 781 783 785 787 788 791 793 795 797 799 801 803 805 807 809 810 811 813 814 816 818 819 821 822 823 824 826 827 829 830 831 831 832 832 833 834 835 836 837 838 838 838 839 839 839 839 839 840 840 841 841 841 841 841 840 840 840 839 839 839 838 838 837 836
712 716 719 722 726 730 733 737 741 744 746 749 751 754 758 761 764 768 771 774 777 779 781 783 785 787 789 790 792 795 797 799 801 803 805 807 808 810 811 813 815 816 818 819 819 820 822 824 826 827 828 829 829 830 830 831 832 833 834 835 836 836 837 837 837 838 838 838 839 839 840 840 840 840 839 839 839 838 838 838 837 837 836 835 834
712 715 718 721 725 728 732 736 740 743 746 748 751 754 757 760 763 765 768 771 774 777 779 781 783 785 787 789 791 793 795 797 799 801 803 805 806 808 810 811 813 814 815 817 817 818 820 822 824 825 826 827 827 828 828 829 830 831 832 833 833 834 835 835 836 836 836 837 838 838 838 838 838 838 838 837 837 836 836 836 836 835 835 834 833
710 714 717 720 723 727 730 734 737 741 744 747 750 753 756 758 760 762 764 766 770 773 775 777 779 781 783 786 789 791 793 794 796 797 799 801 803 806 807 809 810 811 813 814 815 817 819 820 822 823 823 824 825 825 826 827 828 828 829 830 831 832 833 833 833 834 835 835 836 836 836 836 836 836 835 835 835 835 834 834 834 833 833 832 832
710 713 716 719 722 726 729 733 736 739 742 745 748 751 753 756 757 759 762 764 766 768 771 773 775 778 780 783 786 788 790 791 792 794 796 798 801 803 804 806 807 808 810 812 813 815 817 818 819 820 821 822 822 823 824 824 825 826 827 828 829 830 830 831 831 832 833 834 834 833 834 834 833 833 833 832 832 832 832 832 832 832 831 831 830
709 713 715 718 721 724 728 732 735 737 741 744 747 750 753 755 757 759 761 764 766 767 769 771 774 776 779 781 783 785 787 788 790 792 795 797 799 800 802 803 805 806 808 810 811 812 814 816 817 817 819 819 820 820 821 822 822 823 824 826 827 827 828 828 829 830 831 831 831 831 831 831 831 831 830 830 830 830 830 830 830 830 829 829 828
708 711 714 717 720 722 726 730 734 737 740 743 746 748 751 754 757 759 761 763 765 767 769 771 773 775 777 779 781 783 785 787 790 792 794 796 798 799 800 802 803 804 806 807 809 810 812 813 814 815 816 817 817 818 819 819 820 821 822 823 824 825 825 826 827 827 828 828 828 828 829 828 828 828 828 828 828 828 828 828 828 828 827 827 826
706 709 712 715 718 721 725 729 732 736 739 741 744 747 749 752 755 758 760 762 764 767 769 771 772 774 776 778 780 782 784 786 789 790 792 794 796 797 798 799 801 802 803 805 807 808 809 811 812 813 814 814 815 815 816 817 818 819 820 821 822 823 823 824 825 825 825 825 825 826 826 826 826 826 826 826 826 826 826 826 826 826 825 825 824
704 707 711 714 717 721 725 728 731 734 737 739 742 745 747 750 752 755 758 761 763 766 768 769 771 773 775 778 779 781 783 785 787 789 790 792 793 795 796 797 798 800 801 803 804 805 807 808 809 811 811 812 812 813 814 815 816 817 818 819 820 821 822 822 822 822 822 822 822 823 823 823 823 823 823 823 823 823 824 824 824 824 823 823 822
704 706 709 713 717 721 724 727 730 732 735 738 740 743 745 747 749 752 755 758 761 763 765 767 769 772 774 777 779 780 782 784 786 787 788 790 792 793 794 795 796 798 799 800 801 802 804 805 806 807 808 808 809 810 811 812 813 815 816 816 817 819 820 820 820 820 820 820 820 820 820 820 820 820 820 820 820 821 821 821 821 821 821 821 820
704 707 709 712 716 719 723 726 728 731 734 737 739 741 743 746 748 750 753 755 758 760 762 765 767 770 772 775 777 779 781 782 784 786 787 789 791 792 792 793 794 795 796 797 799 800 801 802 803 803 804 805 805 807 808 809 810 812 813 814 815 816 817 817 817 817 817 817 817 817 817 817 817 817 818 818 818 818 818 818 818 818 818 818 818
705 708 711 714 716 719 722 725 727 730 733 736 738 741 743 745 747 749 752 754 756 759 761 764 766 769 771 773 775 777 779 780 782 784 786 788 789 789 789 790 791 792 793 794 795 796 797 798 799 800 801 802 803 804 805 806 807 808 810 811 812 813 814 815 815 815 815 814 814 814 814 814 814 815 815 815 815 815 815 815 816 816 816 816 816
705 707 711 715 717 720 723 725 728 730 733 735 738 740 743 745 747 749 751 754 756 759 761 763 766 768 769 771 773 775 776 778 780 782 784 785 786 786 786 787 788 789 790 790 792 793 794 794 795 796 797 798 800 801 802 803 804 805 807 808 809 811 811 812 812 812 812 812 811 811 811 811 812 813 813 813 813 813 813 813 814 814 814 814 814
703 706 709 713 717 720 723 726 728 731 733 735 737 739 741 744 746 748 751 753 756 758 760 762 764 766 767 768 771 772 774 776 778 780 781 782 783 783 784 784 786 786 787 788 789 790 791 791 793 794 795 796 798 799 801 801 802 803 804 806 807 808 808 809 810 810 810 810 809 809 809 809 810 811 811 811 811 811 811 812 812 812 812 812 811
702 706 709 713 716 719 722 725 728 730 733 735 737 738 740 742 745 747 750 753 755 757 759 761 762 763 764 766 768 770 772 774 775 777 778 780 780 780 781 782 783 784 785 786 787 788 788 789 790 791 792 794 796 797 798 799 800 801 802 803 804 805 806 807 807 808 808 808 808 807 807 808 808 809 809 809 809 809 810 810 810 810 810 810 809
702 706 709 713 716 719 722 725 727 730 732 734 735 737 739 741 743 746 748 751 753 755 757 759 760 761 762 764 766 768 770 772 773 775 776 777 778 778 779 779 779 780 781 783 784 785 786 787 788 789 790 792 793 794 795 796 797 798 799 800 801 802 803 804 804 805 805 806 806 806 806 806 807 807 807 807 808 808 808 808 808 808 808 807 807
701 705 708 712 715 718 721 724 726 729 731 733 735 736 738 740 742 745 747 749 752 754 755 757 758 759 761 763 764 766 769 770 772 773 774 775 775 776 776 777 777 778 779 780 781 782 783 784 785 787 788 789 791 792 793 793 794 795 797 797 797 798 799 800 801 801 802 803 803 804 804 804 805 805 806 806 806 807 806 806 806 805 805 805 804
701 705 708 711 714 717 720 722 725 728 730 732 734 735 737 739 741 744 746 748 750 752 754 755 756 758 760 761 763 766 768 769 770 771 772 773 774 775 775 775 776 776 777 778 779 780 781 782 783 784 786 787 789 790 791 791 792 793 794 795 795 795 796 796 797 798 798 799 800 801 801 802 802 803 803 804 804 804 804 804 803 803 803 802 802
703 705 708 711 714 716 719 722 724 727 729 731 732 734 737 739 741 743 745 747 749 750 752 753 755 756 758 760 762 764 766 767 768 769 770 771 772 773 774 774 774 775 775 776 777 778 779 780 781 782 784 785 786 787 788 789 790 791 792 792 792 792 793 793 793 794 794 795 796 797 798 799 799 800 801 801 801 801 801 801 801 801 800 800 799
704 706 708 711 714 717 720 722 724 726 727 729 732 734 736 738 740 742 744 745 747 748 749 751 753 755 756 758 760 762 763 764 765 767 768 769 770 771 772 772 773 773 774 774 775 776 777 778 779 780 781 782 784 785 785 786 787 788 789 789 790 790 790 790 790 790 791 791 792 793 795 796 796 797 798 799 799 799 799 799 798 798 797 797 796
705 707 709 712 715 717 720 722 723 725 727 729 732 734 736 738 740 741 742 743 744 746 747 749 751 753 754 756 757 759 760 761 763 764 765 766 768 769 770 770 771 771 771 772 773 774 775 776 777 778 778 780 781 782 783 784 784 785 786 787 787 787 788 788 789 789 789 789 790 790 792 793 794 795 796 796 796 796 796 796 795 795 794 794 794
705 707 710 712 715 717 719 721 723 725 727 729 731 733 735 737 738 739 740 741 743 744 746 747 749 751 752 754 755 756 757 759 760 761 763 764 765 767 768 768 769 769 769 770 771 772 773 773 774 775 775 776 778 779 780 781 782 783 783 784 785 785 786 786 787 787 787 788 788 788 789 791 792 792 792 793 793 793 793 792 792 792 792 792 791
706 709 711 713 715 717 719 721 723 725 726 729 730 732 734 736 737 738 739 740 742 743 744 746 747 749 750 752 753 754 755 757 758 759 760 761 763 764 766 766 766 767 767 768 769 770 771 771 772 772 773 774 775 776 777 778 779 780 781 782 783 783 784 784 785 785 785 786 786 787 787 788 789 789 789 790 790 790 790 790 790 790 789 789 789
708 710 712 714 716 718 719 721 723 724 726 728 730 731 733 734 735 737 738 739 740 742 743 744 746 747 748 750 751 752 753 755 756 757 758 759 761 762 763 764 764 765 766 766 767 768 769 769 770 771 771 772 773 774 775 776 777 778 779 779 780 781 781 782 782 783 783 784 784 785 786 786 786 787 787 787 787 787 787 787 787 787 787 787 788
709 711 712 714 716 718 720 721 723 724 725 727 728 730 731 732 734 735 736 738 739 740 741 743 744 745 747 748 749 751 752 753 754 755 756 757 758 760 761 762 762 763 764 765 765 766 767 768 768 769 770 770 771 772 773 774 775 776 776 777 778 778 779 779 780 781 781 782 782 783 784 784 784 784 784 784 785 785 785 785 785 785 785 786 786
709 711 713 715 716 718 720 721 722 724 725 726 727 728 730 731 732 733 735 736 737 739 740 742 743 744 746 747 748 749 750 751 752 753 754 755 756 757 758 759 760 761 762 763 764 764 765 766 767 767 768 769 770 770 771 772 773 774 774 775 775 776 777 777 778 779 779 780 780 781 782 782 782 782 782 782 782 782 783 783 783 783 783 784 784
710 712 713 715 716 718 719 720 721 723 724 725 726 727 728 729 731 732 733 735 736 738 739 740 742 743 744 745 747 748 748 749 750 751 752 753 754 755 756 757 758 759 760 761 762 763 764 764 765 766 766 767 768 769 769 770 771 771 772 773 773 774 775 775 776 777 777 778 778 779 779 780 780 780 780 780 780 781 781 781 781 782 782 783 783
Wind_Speed
33 34 33 33 33 34 34 34 34 34 34 34 34 33 33 33 32 30 28 27 26 25 25 24 22 22 20 18 18 17 16 16 16 16 17 17 18 18 19 19 19 20 20 20 19 19 19 20 18 17 16 15 15 14 14 13 13 13 12 12 13 11 13 17 16 11 9 9 7 7 7 7 10 12 14 16 16 15 13 12 12 12 12 13 14
35 35 33 33 34 34 34 34 34 34 34 33 33 33 33 33 32 29 28 28 27 27 26 25 23 22 20 19 18 17 17 17 18 18 18 19 19 19 19 19 20 21 21 21 21 21 20 21 20 17 16 15 15 14 14 14 14 15 15 14 16 15 14 17 18 13 11 10 7 6 7 8 10 13 14 16 17 17 15 14 13 13 13 13 13
35 34 33 33 33 34 34 34 34 34 34 33 33 33 33 32 31 29 29 28 28 28 27 25 24 22 20 19 19 18 18 18 18 19 20 20 21 21 20 20 20 22 23 23 23 23 22 21 20 19 17 16 16 15 14 14 15 16 16 15 16 16 14 15 15 13 12 9 7 7 8 9 11 12 14 15 16 17 18 17 15 13 13 13 14
34 33 33 33 33 34 34 34 34 34 34 33 33 32 31 31 31 29 28 29 29 29 27 26 24 22 21 20 19 20 20 19 20 20 21 21 21 21 21 21 21 22 23 24 24 23 22 22 20 19 19 18 17 16 15 14 13 15 15 15 15 14 13 12 12 12 12 9 7 8 9 9 11 12 13 14 15 16 17 18 18 16 13 13 14
33 33 33 33 34 34 35 34 34 34 34 33 32 31 31 31 30 28 28 30 31 30 28 26 24 23 22 21 21 21 21 21 21 22 22 21 21 21 21 21 22 23 23 24 24 23 22 21 21 21 20 19 18 17 15 14 13 13 14 14 13 13 12 11 10 10 10 9 9 9 9 9 11 12 13 15 16 17 17 18 19 19 15 13 15
33 33 33 34 34 34 35 35 35 35 34 32 32 31 31 31 29 27 29 31 32 31 29 27 25 23 22 21 22 22 22 22 22 22 23 22 22 21 21 22 23 23 23 23 22 22 21 20 21 21 20 19 18 17 16 14 13 13 13 13 13 12 11 11 11 10 10 10 10 9 9 9 10 11 13 16 17 18 19 19 20 20 18 15 16
33 34 34 35 34 35 35 35 35 34 33 33 32 32 32 30 27 27 30 33 33 32 29 27 25 23 22 22 23 23 22 23 23 23 23 23 23 22 23 23 23 22 22 22 21 21 20 19 20 19 18 17 17 17 16 15 14 13 13 13 12 11 12 13 12 11 11 11 11 9 8 8 8 10 12 14 15 16 19 20 20 21 20 17 16
33 34 35 35 34 35 36 35 35 35 34 34 33 32 32 29 26 28 32 33 33 32 29 27 25 23 23 23 23 23 23 24 24 24 24 23 23 24 23 23 23 23 23 22 21 20 19 18 18 17 17 16 15 14 14 15 15 15 13 13 12 12 13 14 13 12 12 12 11 9 7 5 6 9 12 14 15 16 18 19 19 20 20 18 15
33 34 34 35 35 35 35 35 35 34 33 33 33 33 31 28 27 30 33 33 33 31 29 27 25 24 24 24 24 24 25 25 25 25 25 24 24 24 24 24 24 24 24 23 21 20 19 18 17 16 15 14 14 12 11 12 15 16 15 14 14 15 15 15 14 14 14 12 10 8 5 4 5 9 11 13 15 16 16 16 17 18 19 18 15
33 34 34 34 34 35 35 34 35 34 32 32 32 32 31 29 29 31 33 33 32 31 29 27 26 25 26 26 25 25 25 26 26 25 25 24 25 25 25 24 24 24 24 23 22 20 19 18 16 15 14 14 13 11 10 11 13 15 16 16 15 16 16 16 14 14 13 11 9 7 4 3 5 8 10 12 13 13 14 15 17 17 19 19 16
32 33 33 33 34 35 34 33 34 35 34 33 32 32 32 30 30 31 32 32 32 31 29 27 26 26 26 26 26 26 26 26 26 25 25 24 25 26 26 25 25 24 24 24 23 21 19 18 16 15 15 15 14 12 12 15 16 16 16 15 14 14 15 15 14 12 11 9 7 5 2 3 6 8 10 11 11 11 12 14 15 17 18 17 14
32 32 32 33 35 36 35 34 33 33 34 34 33 33 32 30 30 31 31 32 32 31 29 28 27 27 26 26 27 27 27 26 25 25 25 25 25 25 26 26 26 25 24 23 23 21 19 17 16 15 15 15 15 14 16 18 18 17 17 16 14 13 13 12 12 11 9 8 6 4 1 3 7 9 9 9 9 8 10 12 13 14 16 15 15
31 32 32 34 35 36 36 36 34 33 33 34 34 33 32 30 31 32 32 32 32 31 29 28 28 27 27 26 26 27 26 26 25 25 25 25 25 25 26 26 26 25 24 23 22 21 19 17 15 14 14 16 17 17 19 19 18 17 15 14 13 12 11 9 9 8 6 6 6 4 1 3 7 8 7 6 7 7 9 11 11 12 13 14 15
31 31 33 34 36 36 36 36 35 35 35 34 33 33 32 31 31 32 32 32 32 31 30 29 28 27 26 25 26 26 26 25 25 25 25 25 25 26 26 26 26 25 24 23 21 20 18 16 16 16 16 18 19 20 20 19 17 16 14 12 11 10 9 7 6 5 4 4 6 4 1 4 6 5 2 2 4 6 8 9 9 11 12 13 14
31 32 33 34 36 36 36 35 35 35 36 36 34 32 31 31 31 31 32 32 32 31 30 30 29 27 26 25 25 25 25 25 25 25 25 25 25 26 26 26 26 25 23 22 20 18 15 14 15 16 18 20 21 20 19 18 16 14 13 11 10 9 8 6 6 5 4 4 5 4 0 4 3 1 2 1 3 5 6 7 8 10 12 14 14
31 32 33 35 36 36 36 35 34 33 35 36 34 32 31 31 31 32 32 32 32 31 31 30 29 27 26 26 26 25 25 25 25 24 25 25 26 26 26 26 26 25 23 21 19 16 14 14 15 17 20 21 22 20 18 16 15 14 13 12 10 9 8 7 7 6 4 5 6 4 1 2 1 2 3 2 3 4 3 5 7 9 12 14 15
31 32 33 35 36 37 37 36 34 33 34 35 33 31 31 31 31 32 32 31 31 31 31 30 28 27 27 27 27 26 26 25 25 25 25 25 26 27 26 26 26 24 23 22 19 17 18 17 17 19 22 22 21 20 17 15 15 14 13 12 11 10 8 8 8 7 6 6 7 5 3 2 2 3 3 1 3 3 2 4 7 9 11 12 12
31 33 34 36 37 37 37 37 36 34 34 34 33 31 30 31 31 32 32 32 31 31 31 30 28 28 28 28 28 27 26 26 25 25 25 26 27 28 27 26 25 24 23 22 20 20 20 17 16 20 22 21 20 20 17 16 16 15 14 14 13 11 10 10 10 9 7 7 8 7 5 3 3 4 3 1 2 2 2 4 6 8 11 10 10
33 34 35 37 38 37 37 38 38 36 34 33 32 32 31 31 31 31 31 31 30 31 31 29 28 28 29 28 27 27 26 26 26 25 26 27 28 28 28 26 25 23 24 23 22 22 20 17 17 20 21 19 20 20 17 15 14 14 15 16 15 13 12 12 11 10 9 9 10 9 7 5 4 5 5 2 2 2 2 3 5 8 10 10 10
34 35 36 36 36 36 36 36 36 35 34 32 30 30 30 30 29 30 29 28 29 30 30 30 29 29 30 29 28 27 26 26 26 26 27 29 29 28 28 27 25 25 26 26 24 23 21 20 21 21 19 18 19 18 16 14 13 13 15 18 17 15 14 13 12 11 11 11 12 11 9 7 6 7 6 3 2 3 2 2 4 7 8 9 10
33 35 35 36 35 35 33 31 29 31 32 31 29 29 29 29 29 29 28 28 28 28 29 29 29 29 29 28 28 27 26 26 27 27 28 29 30 29 28 28 28 27 28 27 26 25 23 23 24 22 19 18 18 17 16 14 13 13 15 17 17 15 14 13 12 12 12 13 13 12 9 7 7 8 7 4 2 2 1 1 4 6 7 8 10
33 34 35 34 34 33 30 29 30 31 31 31 30 29 29 29 30 30 29 29 29 28 28 28 28 27 28 28 28 27 26 26 27 27 27 29 30 30 29 29 28 27 28 28 27 26 24 24 26 24 21 19 18 18 17 15 14 14 14 16 16 15 14 14 12 12 13 14 13 12 9 7 7 8 7 4 2 2 1 2 4 5 5 7 9
32 32 33 32 32 32 32 32 32 32 30 31 31 30 30 29 29 30 30 29 28 27 27 26 26 26 26 27 27 26 26 27 27 27 27 28 30 31 30 28 27 28 28 27 27 26 25 25 26 25 22 20 19 19 18 17 17 16 14 15 17 17 16 15 14 13 14 14 14 13 10 7 7 8 7 4 2 3 2 2 4 5 5 6 8
31 31 31 31 31 32 34 33 33 32 32 31 30 30 31 30 30 30 30 29 28 27 26 26 26 25 25 25 26 27 27 27 26 27 28 28 29 31 31 29 28 28 27 26 25 25 25 25 25 25 24 22 20 19 19 19 19 18 16 15 17 18 18 18 16 15 15 15 15 13 11 8 7 7 6 5 3 4 4 5 6 6 6 7 7
31 31 30 30 30 32 33 33 33 33 32 32 31 30 30 30 29 29 29 29 29 27 26 26 25 24 24 24 26 28 29 27 26 27 28 28 28 29 30 30 29 28 27 26 25 25 25 24 23 23 23 22 21 20 21 21 20 19 18 17 17 18 19 19 18 17 16 16 15 14 12 9 7 6 6 6 6 6 6 7 8 8 7 7 7
30 30 30 30 31 32 32 31 30 30 31 31 31 31 31 31 30 29 29 29 28 27 26 25 24 23 24 25 26 28 28 28 27 27 28 29 30 30 30 30 29 28 26 25 25 25 25 24 24 24 24 23 22 22 22 22 21 20 19 19 19 19 19 18 18 18 17 16 16 15 12 9 8 8 8 8 9 8 8 8 9 9 9 9 8
30 29 29 29 30 31 30 29 27 27 28 28 28 29 30 31 31 31 31 29 27 26 25 25 24 24 24 23 24 26 28 29 29 28 28 30 30 31 30 28 27 26 25 24 25 25 25 25 25 24 23 23 24 24 24 23 22 22 21 21 21 20 19 19 19 19 18 17 16 15 14 12 12 11 11 11 12 11 10 10 11 11 11 11 11
29 28 28 29 29 29 29 29 28 27 27 28 28 28 30 31 32 33 34 33 31 29 28 28 27 27 26 25 24 25 27 29 29 29 29 30 31 31 31 29 27 26 24 24 25 24 23 24 24 23 23 23 25 26 26 25 25 24 23 22 22 21 21 20 20 20 19 17 16 16 16 16 15 14 14 14 14 13 12 12 12 12 12 12 11
28 28 28 28 28 28 29 29 29 29 28 29 29 29 31 33 33 33 34 35 35 34 32 31 31 30 29 27 26 26 27 28 28 28 28 28 29 30 30 29 30 29 26 24 24 24 23 22 22 22 23 24 24 25 26 27 27 27 25 24 23 23 22 22 22 21 19 18 18 18 18 18 18 16 14 14 14 13 12 12 13 12 12 12 12
26 26 26 27 27 28 29 29 29 28 28 28 28 27 27 29 30 31 32 33 34 33 31 30 29 29 28 28 27 26 24 23 23 25 25 25 26 26 25 26 28 29 29 26 23 22 22 21 21 21 22 24 25 26 26 26 27 28 27 25 24 23 23 22 22 20 19 18 19 19 19 19 19 17 15 14 14 13 12 12 12 12 12 13 13
25 25 26 27 28 30 29 28 27 27 27 27 28 26 25 24 25 28 29 30 30 30 29 28 27 26 25 25 25 25 24 21 20 21 21 22 23 23 23 23 24 26 28 28 26 23 22 21 20 20 20 22 25 26 26 26 27 28 28 26 25 24 23 22 21 19 18 19 19 19 19 20 20 18 17 17 16 15 14 13 12 13 14 14 14
27 26 27 28 29 29 28 28 27 27 26 27 28 28 26 23 21 21 23 25 27 27 27 27 26 25 24 23 23 23 23 21 19 19 18 18 20 20 20 21 21 22 25 27 28 27 25 23 22 21 21 22 24 25 26 26 26 27 27 25 25 24 22 21 20 19 19 18 18 18 19 19 19 18 18 18 18 18 18 16 14 14 15 16 15
29 28 28 28 29 28 27 27 27 27 27 28 28 28 27 25 23 20 19 20 22 24 25 26 25 22 21 22 22 21 19 17 16 17 17 17 17 17 17 19 21 23 23 25 27 28 28 27 26 25 24 24 24 24 25 25 26 25 25 25 25 23 22 20 20 18 17 16 16 17 18 18 18 18 18 19 19 20 20 19 17 15 15 16 15
31 30 30 30 30 28 27 28 28 28 28 29 29 28 28 28 27 24 21 19 19 21 23 24 23 19 17 17 18 18 17 15 15 15 16 16 15 16 18 20 22 23 23 24 26 28 28 28 29 29 29 29 28 27 26 26 25 25 24 25 24 23 21 20 19 16 15 16 17 18 18 17 18 18 19 19 20 20 21 21 19 17 16 16 15
29 30 31 32 31 29 29 29 28 28 28 28 28 28 28 27 25 25 24 23 22 21 21 21 20 19 17 17 18 18 17 16 16 15 15 15 16 18 20 22 22 22 22 24 26 27 28 29 30 31 32 33 32 30 29 28 27 27 26 26 25 23 22 21 18 15 14 16 17 18 17 17 17 17 16 17 18 20 20 20 18 17 15 15 15
27 27 29 29 29 29 29 28 28 28 28 28 28 27 25 24 24 24 24 24 22 20 18 18 18 18 18 19 19 18 17 17 17 16 16 17 19 20 21 23 23 24 25 26 27 28 29 30 30 30 31 32 32 32 31 30 29 29 28 28 26 24 23 21 17 14 15 16 17 17 17 16 15 14 14 14 16 17 17 15 15 15 15 14 14
27 29 29 27 27 27 26 26 26 26 27 26 25 23 22 23 23 22 21 20 18 16 16 16 17 17 19 19 19 18 17 18 18 18 18 20 22 23 23 24 25 26 27 28 29 29 30 30 30 30 30 31 31 31 30 30 29 28 28 27 26 24 23 22 18 16 16 16 17 16 15 14 14 14 14 14 15 15 14 13 13 15 15 15 14
28 29 30 28 27 26 25 25 24 24 23 23 22 22 22 21 20 19 18 17 16 15 16 16 18 20 21 20 20 19 19 19 19 20 20 21 23 24 24 25 26 27 27 27 28 29 30 30 30 29 30 29 28 28 28 28 27 26 25 25 23 22 22 21 19 17 17 16 15 12 11 12 14 15 14 14 14 14 14 14 15 16 16 15 15
26 27 28 27 26 26 26 25 24 23 22 21 21 21 21 20 19 19 18 17 17 17 18 18 20 22 23 22 21 20 19 20 20 21 21 22 23 24 24 24 26 27 27 27 26 27 28 29 28 28 28 27 26 26 26 26 25 24 23 22 21 21 21 21 19 19 19 18 16 13 12 12 14 15 14 14 14 14 14 14 15 15 15 15 15
26 25 25 25 24 24 24 23 23 22 21 20 20 20 20 20 20 19 19 19 19 20 20 21 23 24 23 22 21 20 20 21 22 22 23 23 24 24 24 25 26 28 28 28 26 26 27 28 27 26 26 26 25 24 24 24 24 24 23 22 21 21 20 20 20 19 19 20 20 18 16 15 15 16 14 13 12 13 13 13 13 13 13 14 15
25 24 24 23 23 22 21 21 21 21 20 20 20 20 20 20 20 20 20 20 20 21 22 23 24 23 22 21 20 20 21 22 22 22 22 23 23 23 23 24 26 28 29 29 28 27 27 26 25 25 24 24 23 22 22 21 22 22 22 20 19 18 18 19 19 19 20 21 23 23 21 19 16 15 13 11 11 11 11 12 13 14 15 16 16
23 23 23 22 21 21 21 20 20 20 20 20 20 20 20 20 20 20 20 20 21 21 22 22 21 20 19 19 19 19 20 21 21 20 20 20 20 20 21 21 23 25 26 27 27 26 26 25 24 24 24 23 22 21 20 20 20 20 20 19 17 17 17 18 19 19 19 19 21 23 22 19 14 13 12 12 11 10 10 11 13 15 15 16 16
22 22 22 21 20 19 19 19 19 19 19 20 20 19 19 19 19 19 19 20 20 20 19 19 19 18 19 19 19 19 20 21 21 21 20 20 20 20 19 19 19 20 22 23 23 24 24 24 24 24 24 23 21 20 19 19 19 19 19 19 18 18 18 18 17 15 15 17 19 20 17 13 12 12 12 11 10 9 10 12 14 15 15 14 14
20 19 18 18 17 16 16 16 17 18 19 19 19 18 18 18 18 18 18 18 18 17 17 18 19 19 19 19 19 19 21 23 23 23 22 21 20 20 19 18 18 18 18 19 20 22 23 24 25 25 25 24 22 21 20 19 18 18 19 19 19 18 17 15 11 9 9 12 15 15 13 12 13 13 11 9 8 10 12 14 15 15 14 13 12
17 16 16 17 16 16 15 15 15 16 17 17 17 17 17 17 17 17 17 16 16 17 19 20 20 20 20 20 20 21 22 23 24 24 23 22 21 19 18 17 17 17 16 17 18 20 22 23 23 24 24 23 22 22 20 19 18 18 18 18 17 16 13 11 8 7 8 8 9 12 14 14 13 11 9 9 11 13 15 15 15 15 14 12 12
15 15 17 17 17 16 15 14 14 15 15 16 16 17 17 17 16 16 15 16 17 18 20 21 21 21 21 22 22 22 23 23 24 24 24 23 22 19 18 17 17 16 16 15 16 16 17 18 19 19 20 20 19 19 19 18 17 16 15 14 13 12 10 9 9 9 10 9 8 9 12 12 11 9 10 12 14 15 14 14 13 13 12 11 11
15 16 16 15 15 14 14 13 13 13 13 14 14 14 15 15 15 15 15 17 18 18 19 19 20 21 21 22 23 23 23 23 23 23 23 23 22 19 17 17 17 16 15 14 14 13 12 12 13 14 14 15 15 15 15 15 14 13 11 10 11 11 11 11 11 10 10 10 9 9 9 10 11 12 14 15 15 14 13 12 12 11 11 11 11
15 16 15 14 14 14 13 12 12 12 13 13 13 13 13 13 13 14 16 16 17 18 18 19 19 20 20 21 22 23 22 22 21 21 21 22 21 19 18 18 17 16 15 13 12 11 10 9 10 10 10 11 11 11 12 12 12 12 11 11 11 12 12 12 11 10 9 9 9 9 10 11 13 14 15 15 14 13 12 12 12 12 11 11 10
15 15 15 15 14 14 13 13 14 14 14 14 14 14 13 13 13 14 15 15 16 17 18 18 19 19 20 20 20 21 21 21 20 19 20 20 20 19 19 18 17 16 14 13 11 9 8 8 8 8 8 8 8 9 10 10 11 11 11 11 11 11 11 11 10 10 10 10 10 11 12 13 14 14 14 13 12 12 12 12 12 11 11 10 8
15 15 15 15 15 14 14 14 14 14 15 15 15 14 13 13 13 13 14 15 16 17 17 18 18 19 18 18 19 19 19 19 19 18 18 19 18 18 17 17 16 15 14 12 11 9 8 7 7 8 8 7 7 8 8 8 9 9 9 9 9 9 9 10 10 10 11 11 11 12 13 13 13 13 13 12 12 12 12 12 11 10 9 9 8
17 17 17 16 15 14 13 13 12 12 12 12 13 13 12 12 12 13 13 14 15 16 17 17 17 18 17 17 17 18 18 18 17 17 17 17 17 16 15 14 15 14 13 12 11 9 8 8 8 8 8 8 8 7 7 7 8 8 8 8 8 8 9 10 11 11 11 11 11 12 12 12 12 12 12 12 12 12 12 11 10 9 9 8 8
Wind_Direction
182 182 182 182 182 184 187 190 191 192 194 194 195 196 198 199 201 204 206 210 213 213 211 209 209 209 208 208 207 202 201 200 198 197 193 188 184 180 175 174 170 162 159 157 155 155 151 146 144 143 143 138 130 129 131 135 144 144 149 154 142 143 150 133 121 118 109 107 101 67 54 56 49 47 49 50 52 51 49 48 46 43 39 36 35
182 182 180 180 182 183 186 188 190 192 193 193 195 196 197 197 200 204 206 210 212 209 207 207 208 208 206 206 206 204 203 201 198 196 194 188 183 179 177 176 172 165 162 159 156 156 154 151 148 148 150 145 137 136 133 135 141 140 141 144 137 135 143 136 127 120 113 108 96 73 66 64 56 50 45 44 46 46 46 45 43 42 39 35 35
181 180 178 178 180 182 185 187 189 191 191 192 194 195 194 196 200 203 205 208 207 205 206 207 206 206 206 206 206 206 205 202 199 197 195 190 184 179 178 178 174 168 164 160 159 161 160 157 154 154 156 152 145 142 140 139 141 139 137 138 136 134 140 143 137 128 120 109 91 83 77 68 60 51 43 40 39 39 40 39 40 42 38 33 33
179 177 175 175 177 181 184 186 188 190 191 192 193 193 192 195 198 201 205 206 203 202 205 206 205 205 206 207 207 206 204 201 199 198 196 193 187 181 179 179 176 170 166 163 163 167 167 164 162 162 161 156 150 147 146 144 143 140 136 135 135 133 134 141 143 139 131 116 95 91 85 72 60 49 38 32 30 31 33 33 34 37 39 36 31
178 176 174 173 176 180 183 185 187 189 191 192 192 192 193 194 196 201 205 202 199 201 204 204 205 206 208 209 208 206 204 202 199 197 196 194 191 185 182 180 177 172 169 168 169 172 172 167 164 166 166 160 155 155 155 152 150 146 141 137 135 134 132 132 137 141 136 122 107 100 91 76 61 47 32 22 19 19 24 28 28 28 33 36 31
177 175 173 172 175 179 182 184 187 188 190 191 191 191 192 193 197 202 202 198 198 201 202 203 205 208 210 210 208 205 203 202 200 198 196 194 191 188 185 182 179 176 174 174 175 176 177 172 167 168 172 169 163 163 163 161 159 155 149 143 139 136 133 132 136 137 131 121 114 105 91 75 56 40 26 15 10 8 10 16 22 23 24 26 27
176 174 173 174 176 179 182 185 187 188 189 190 190 190 191 193 198 200 197 196 198 200 202 203 205 209 211 209 207 205 203 202 202 200 197 195 193 190 187 185 183 182 181 180 180 182 182 179 175 175 180 181 175 172 172 170 167 163 156 150 147 141 136 137 138 135 128 123 117 106 90 71 47 29 16 8 5 5 3 3 8 13 15 18 19
174 173 173 175 176 179 182 185 187 188 189 189 188 189 190 193 197 196 194 196 199 201 202 203 204 208 210 207 205 205 203 203 202 201 199 196 195 193 190 189 187 186 187 186 186 188 189 186 184 183 188 190 186 182 182 179 173 164 158 155 149 142 139 141 140 134 129 126 120 111 97 75 39 20 11 4 0 0 359 354 354 359 5 11 17
174 173 174 176 177 179 181 183 185 186 186 184 184 186 189 192 194 193 194 196 200 201 202 203 204 206 206 205 205 204 205 205 204 203 201 197 196 196 193 191 190 189 189 190 190 191 191 189 187 187 191 191 189 187 185 185 179 165 156 153 147 138 136 137 138 136 134 130 124 116 101 70 30 13 7 2 356 352 352 350 350 353 357 5 17
174 173 175 176 176 178 180 181 182 184 184 182 182 185 187 189 190 192 194 196 198 199 201 203 205 206 204 204 205 205 207 208 207 206 204 200 197 196 194 192 192 192 192 191 190 191 191 189 188 190 193 191 191 191 181 175 173 160 150 149 146 139 136 134 135 137 137 134 128 116 95 44 19 9 360 357 354 350 348 348 350 352 353 358 12
175 175 176 175 175 176 178 180 181 181 182 183 183 184 184 186 189 191 193 194 195 198 200 203 205 205 204 204 205 207 208 209 208 207 206 203 200 197 196 195 195 196 196 193 190 189 188 190 192 195 198 195 193 191 175 163 159 151 145 144 143 140 138 135 135 139 140 136 130 122 87 2 2 3 357 355 354 350 350 350 350 350 350 350 354
175 175 175 174 175 176 177 179 180 180 179 181 183 183 183 185 188 190 191 192 194 197 201 203 203 204 205 206 207 209 210 210 209 208 207 206 204 202 200 199 199 200 199 196 192 189 189 191 195 200 201 198 191 181 169 161 156 151 147 144 141 138 136 132 130 136 141 141 139 139 117 348 353 356 354 350 349 351 353 355 352 347 347 343 338
175 175 175 174 174 176 177 179 181 180 179 180 181 181 181 184 187 190 191 192 195 198 201 202 202 203 205 207 209 210 211 211 209 209 209 207 206 207 206 204 203 202 200 198 195 193 193 196 199 199 196 192 187 177 169 163 158 155 152 149 146 143 140 134 127 125 130 139 143 144 145 343 347 352 353 342 339 344 349 353 353 346 343 342 339
175 174 174 174 175 176 178 179 181 181 180 180 180 180 182 185 188 190 191 192 195 198 199 200 202 204 205 207 210 211 212 211 210 210 210 209 209 211 210 207 206 204 203 201 199 199 203 207 205 196 188 186 184 179 175 170 166 163 160 157 157 155 155 154 149 139 130 140 149 152 152 343 346 351 2 339 336 341 343 348 351 345 344 347 348
174 174 174 174 175 176 177 179 181 180 178 178 180 182 183 185 188 190 191 193 196 197 199 200 203 204 206 208 209 211 212 212 211 211 211 210 211 213 212 209 207 206 205 205 205 207 211 213 207 197 189 187 185 184 183 180 176 173 170 170 172 173 176 180 177 167 153 158 166 168 228 345 345 30 120 72 350 347 345 344 345 342 343 349 356
172 173 173 173 175 176 177 178 179 177 174 175 178 181 183 185 187 190 191 193 196 197 199 201 203 204 206 208 209 211 212 212 212 212 212 212 213 213 213 210 207 207 207 205 206 211 212 209 207 204 199 193 189 190 192 191 187 183 181 182 183 184 190 195 191 183 175 178 185 191 239 323 273 168 136 89 353 352 349 339 344 340 339 346 354
172 173 172 173 176 178 178 178 178 176 174 174 176 180 183 186 188 190 191 192 194 196 198 201 204 205 206 207 210 212 211 211 212 213 213 213 213 213 212 209 209 209 207 206 210 215 215 213 211 208 204 200 196 196 199 201 201 197 193 192 191 193 198 198 196 194 193 195 198 208 228 234 202 187 162 101 347 345 328 331 343 339 337 343 346
173 173 174 176 177 178 178 178 178 177 175 174 175 180 183 186 188 191 192 191 192 195 198 200 204 207 208 209 211 213 213 211 211 212 212 213 213 213 211 210 211 209 206 209 217 219 219 222 219 211 208 207 205 204 205 208 210 208 205 200 198 201 205 202 199 202 207 208 207 213 226 225 207 201 194 195 337 325 300 316 339 339 337 340 335
175 174 175 177 178 178 179 181 180 178 175 174 176 181 184 185 189 191 192 193 193 195 198 200 204 208 211 212 213 215 216 214 212 212 212 212 213 214 213 211 209 207 209 216 221 220 221 227 223 216 215 215 211 209 209 210 213 213 210 205 203 207 208 205 204 211 217 215 212 214 218 217 216 212 207 219 308 304 287 304 331 337 336 340 340
176 175 175 175 177 179 181 182 180 176 172 172 177 183 183 184 188 190 192 193 193 194 197 201 205 207 209 211 213 215 218 217 214 213 212 212 212 214 214 212 209 210 216 221 220 219 223 227 223 218 217 215 211 210 209 212 218 219 213 210 211 213 211 210 214 221 221 214 211 212 212 215 220 214 207 217 271 279 275 307 336 340 339 343 348
174 173 174 175 177 179 181 180 177 174 174 175 179 182 183 185 187 188 190 192 193 194 197 200 203 204 206 210 213 215 219 220 218 214 213 213 213 215 216 217 217 218 220 221 221 221 223 225 224 219 216 215 216 216 216 219 225 226 222 221 222 223 220 221 225 227 220 211 210 213 213 216 217 209 206 218 256 265 269 335 345 343 343 350 353
172 172 174 175 174 174 176 178 179 178 179 179 177 178 181 186 188 188 189 191 192 194 197 198 198 200 204 209 213 215 219 221 219 216 215 215 215 217 219 222 224 224 223 223 224 225 226 229 228 223 218 218 221 222 224 228 231 233 234 231 231 231 231 232 235 230 220 214 216 219 219 218 212 205 208 223 249 253 267 352 353 343 341 350 353
171 172 172 171 169 171 175 178 179 179 180 179 176 175 178 184 186 186 188 189 188 190 194 195 196 197 201 206 210 214 217 219 218 217 217 217 217 218 222 227 229 229 228 228 230 230 231 233 232 226 220 220 222 224 228 232 235 240 242 238 236 237 238 240 241 235 227 224 225 227 227 223 214 209 215 230 254 261 274 318 336 334 332 339 345
170 170 169 167 167 170 174 177 178 180 181 179 176 174 177 181 183 185 187 187 186 187 191 193 194 194 197 200 205 209 213 217 218 218 218 219 219 220 223 227 229 230 231 234 238 237 234 232 230 225 222 223 227 231 233 235 239 244 246 244 243 242 242 245 246 243 237 233 234 236 237 233 224 222 233 246 254 262 280 295 306 315 322 327 329
170 170 169 167 165 169 173 176 179 180 180 178 176 176 177 177 178 182 184 185 186 188 191 193 193 193 194 198 202 206 210 215 217 217 218 221 222 222 224 225 227 229 231 235 240 240 235 230 228 226 226 229 232 234 234 237 241 245 247 248 248 246 246 247 249 248 245 242 241 243 242 238 236 242 254 261 261 265 280 293 299 304 313 319 316
171 171 171 170 169 171 173 175 178 178 178 179 180 180 179 178 178 179 183 186 190 191 191 192 193 193 195 199 202 205 209 212 215 217 219 221 221 222 223 225 227 229 232 236 239 237 232 230 231 233 234 235 235 236 238 241 244 245 245 246 248 249 249 249 250 252 252 251 250 248 246 246 250 254 261 268 271 275 283 292 299 305 312 319 317
171 170 170 170 170 171 171 172 173 174 173 176 179 181 182 182 181 182 185 188 189 191 193 193 192 194 197 199 202 205 208 211 213 217 220 221 221 221 223 224 226 227 229 231 232 232 230 231 234 237 237 237 238 241 244 245 245 245 245 245 247 249 250 251 253 257 259 260 260 258 256 257 259 260 267 274 275 278 282 286 295 306 314 318 319
170 168 167 167 168 170 171 171 171 171 173 177 180 182 184 185 187 189 191 191 190 191 194 195 197 199 200 199 199 202 206 211 215 218 220 220 220 221 224 225 226 226 226 226 226 227 230 233 234 233 235 237 238 240 243 244 245 246 246 246 248 250 251 252 255 258 262 266 267 266 264 265 267 270 277 279 274 273 277 280 287 299 308 311 315
169 167 166 165 166 168 171 172 172 173 176 179 184 187 190 192 194 195 196 198 199 201 202 202 205 207 206 204 203 202 205 216 224 226 224 222 221 223 227 229 230 229 228 226 223 221 223 227 229 229 232 235 238 240 242 243 244 245 246 246 247 249 251 253 255 259 263 267 269 270 270 272 275 278 283 282 273 266 269 277 284 293 301 304 307
163 163 163 163 166 168 170 173 175 176 177 179 182 187 192 196 199 200 201 203 207 211 214 215 216 215 213 214 217 217 221 232 237 232 227 224 224 229 235 239 239 235 229 224 219 217 218 222 226 228 230 233 237 241 243 243 243 243 244 244 245 248 251 254 257 261 264 265 267 270 271 274 276 277 279 278 269 261 265 275 282 288 293 296 301
160 162 165 167 170 172 172 173 175 177 178 180 181 182 185 192 200 205 207 208 210 214 218 221 224 225 224 224 226 228 233 239 240 236 233 230 230 237 243 245 243 239 233 225 220 218 221 225 228 231 233 234 236 240 243 244 244 243 241 241 243 247 251 256 260 263 265 264 265 267 270 273 275 275 274 272 266 261 264 271 278 283 287 291 296
164 166 170 173 174 174 174 174 177 178 178 180 183 183 182 183 191 201 209 212 213 215 218 221 225 228 229 229 229 229 230 234 237 239 239 239 240 244 248 248 247 245 238 228 223 224 227 230 232 235 237 238 239 240 242 243 243 242 240 240 242 246 252 260 268 272 271 269 268 269 271 274 274 274 274 272 267 263 262 266 272 277 283 289 293
169 167 169 171 172 174 176 176 178 179 180 181 183 184 184 183 185 190 198 205 211 214 217 221 224 225 226 228 231 233 234 237 241 242 243 246 249 251 252 252 249 244 236 227 224 227 230 232 235 237 239 242 244 244 243 243 242 242 242 243 245 249 257 268 277 278 275 274 274 275 275 275 275 275 273 271 269 265 262 264 270 273 278 285 288
172 172 173 173 173 175 178 179 180 182 183 184 185 187 190 192 191 187 185 187 197 206 212 218 221 222 222 223 226 229 232 237 243 245 246 250 254 255 254 248 241 237 235 231 229 231 231 232 234 237 239 242 245 245 244 244 243 243 245 248 251 255 264 274 280 281 282 283 282 279 277 275 274 272 269 268 269 267 263 263 266 268 273 280 282
174 176 176 176 176 177 180 182 183 183 184 187 190 192 194 194 193 191 189 190 193 199 205 209 211 210 210 213 218 225 231 237 241 244 244 247 251 252 247 238 231 230 232 232 233 235 235 235 237 239 241 242 244 244 244 244 244 245 247 251 255 259 267 275 280 284 290 292 287 280 275 272 269 267 265 265 267 267 265 263 262 264 270 277 280
171 172 174 176 178 180 183 184 185 186 188 192 194 195 193 191 192 195 197 198 199 199 199 200 200 202 207 214 221 227 233 236 241 244 245 248 250 248 240 232 229 230 230 231 234 236 237 239 241 242 244 245 245 246 246 246 246 247 249 252 256 261 267 273 276 280 289 295 292 281 271 265 261 257 256 261 265 266 264 260 259 265 272 276 281
172 172 174 177 179 180 182 184 186 189 191 192 192 190 189 190 192 194 195 197 198 196 195 195 198 204 212 218 222 225 228 231 236 241 244 245 247 247 243 237 235 233 232 234 235 236 237 241 243 245 247 247 247 248 249 249 250 251 252 254 256 258 263 267 269 272 283 294 295 283 267 257 254 251 251 257 264 264 260 257 262 272 277 278 281
176 176 176 178 179 179 180 182 185 188 190 190 189 187 187 189 192 193 193 194 195 196 199 203 206 211 217 219 219 219 222 226 231 236 239 240 241 243 243 241 238 236 236 238 239 238 240 244 247 249 251 251 251 253 253 253 253 254 254 255 256 257 259 261 262 265 273 286 296 293 275 259 255 254 254 257 261 260 260 265 273 279 281 281 283
172 173 174 175 177 178 179 180 182 185 186 186 186 187 187 188 189 191 193 195 198 201 205 208 213 218 222 221 218 216 219 225 230 234 236 237 239 242 244 242 238 235 237 241 243 243 244 247 251 254 255 256 257 258 257 256 256 255 255 255 257 257 257 257 258 263 268 275 287 296 289 271 261 257 256 257 260 263 267 275 281 283 282 284 287
168 168 172 175 177 179 180 181 182 184 186 186 187 188 189 191 193 196 197 199 202 205 207 212 217 222 223 223 222 222 224 227 231 233 235 238 241 243 244 242 239 237 237 240 244 247 249 251 254 256 258 260 263 263 262 261 260 258 256 256 257 257 256 255 258 263 266 270 277 287 291 283 270 261 258 259 265 273 280 284 286 286 285 286 289
169 169 173 178 180 181 181 184 187 190 192 193 194 194 196 198 199 200 201 203 205 207 210 215 221 224 226 227 230 231 231 233 235 236 238 242 245 246 247 247 245 243 241 243 248 252 253 255 257 259 260 262 265 266 267 266 263 258 255 254 252 251 251 253 257 262 267 270 272 277 283 284 274 263 261 269 276 281 287 291 290 289 288 289 290
171 171 173 177 181 182 184 187 190 192 194 196 198 200 201 201 202 202 203 206 208 209 211 217 223 228 231 234 235 234 235 236 239 241 244 247 250 251 253 255 253 250 250 252 255 257 258 258 259 260 261 263 266 268 267 266 263 258 255 252 249 248 251 257 261 264 266 266 264 266 272 274 265 254 259 270 277 285 296 300 298 295 293 293 294
172 171 171 175 179 183 186 188 189 191 194 197 200 202 204 205 206 206 207 208 210 212 216 224 229 232 235 237 237 235 234 235 237 242 248 251 253 254 256 259 260 261 261 262 263 263 263 262 261 262 264 265 267 269 270 268 265 261 257 254 252 254 257 261 262 263 261 256 251 253 258 256 244 242 254 268 281 296 303 299 296 295 295 294 294
167 165 168 173 177 183 189 191 191 194 196 198 200 203 206 207 208 208 207 209 214 221 229 234 235 233 233 235 234 232 232 233 235 240 246 250 252 254 258 262 264 265 265 266 266 265 263 263 263 265 266 266 266 267 268 268 266 263 260 259 260 260 260 260 263 273 275 258 242 236 236 236 236 243 256 273 291 298 295 288 286 288 290 289 288
168 168 172 176 180 185 189 192 193 194 194 196 198 201 206 209 211 211 213 218 224 230 235 238 236 233 231 232 233 233 234 235 235 239 244 248 251 254 259 262 265 266 267 268 268 266 265 266 267 268 268 268 266 266 267 267 266 265 265 265 263 262 261 264 273 291 295 276 244 226 225 232 238 247 263 283 292 290 286 283 282 284 285 284 281
174 175 177 179 181 183 185 186 189 191 192 195 199 201 206 212 217 220 225 229 232 233 235 236 236 233 231 233 235 237 239 239 239 240 243 246 249 254 260 264 268 270 271 273 274 273 273 273 272 271 270 268 265 264 265 266 267 268 267 264 259 258 267 277 279 277 277 273 256 231 224 230 241 254 269 281 283 282 280 279 280 283 283 279 273
179 178 178 179 180 183 185 187 189 193 197 201 203 205 209 214 219 226 231 233 234 235 236 236 236 234 232 233 236 238 241 242 242 242 243 245 248 253 259 265 270 273 275 279 281 282 282 279 274 272 270 266 263 261 260 261 263 264 260 255 253 261 272 277 274 270 265 258 245 228 223 233 248 259 268 275 277 276 275 275 276 278 275 269 265
182 181 181 182 185 188 192 196 201 205 208 211 213 216 219 221 223 227 229 231 233 236 238 239 240 239 236 236 237 239 241 243 243 242 242 245 250 254 257 262 268 271 274 277 280 282 281 278 275 274 271 266 261 257 256 258 260 259 256 256 261 267 271 269 266 266 260 248 238 235 242 253 262 267 272 274 274 272 271 272 271 271 267 262 259
188 187 187 188 191 195 198 203 208 212 214 217 219 222 224 225 226 226 227 229 232 236 238 240 242 242 239 238 238 240 242 243 244 244 245 249 254 258 259 261 263 265 267 272 276 275 271 270 273 276 275 269 264 260 259 260 261 260 261 264 265 264 261 257 256 256 253 247 248 254 259 264 269 272 273 273 270 267 268 268 267 264 258 252 246
197 196 195 196 197 199 202 205 209 211 214 217 219 221 224 227 228 228 228 229 231 235 238 241 243 243 242 241 241 242 244 245 248 250 252 256 259 262 261 260 258 258 261 266 268 264 259 261 271 277 277 274 272 268 264 260 258 257 258 257 253 250 248 246 247 250 251 251 256 261 265 270 273 272 269 266 263 262 264 264 260 254 246 236 230
203 202 201 200 198 198 201 204 206 210 215 219 223 226 230 234 236 237 235 234 236 237 240 242 244 245 245 244 244 246 248 250 252 253 255 257 260 261 259 256 255 257 260 263 263 257 250 252 262 272 276 277 275 269 262 255 249 244 242 242 242 246 250 251 250 251 253 255 260 264 267 268 267 264 261 260 260 260 260 255 245 236 227 220 218